Time,TemperatureF,DewpointF,PressureIn,WindDirection,WindDirectionDegrees,WindSpeedMPH,WindSpeedGustMPH,Humidity,HourlyPrecipIn,Conditions,Clouds,dailyrainin,SolarRadiationWatts/m^2,SoftwareType,DateUTC
2013-06-23 00:03:00,70.4,66.0,30.05,NNE,32,1.2,0.0,86,0.00,CLR,FEW,0.00,0.0,WeatherDisplay:10.37,2013-06-22 22:03:00,
2013-06-23 00:08:00,70.4,66.3,30.05,NNE,32,2.3,2.3,87,0.00,CLR,FEW,0.00,0.0,WeatherDisplay:10.37,2013-06-22 22:08:00,
2013-06-23 00:13:00,70.3,66.2,30.05,NNE,17,2.3,2.3,87,0.00,CLR,FEW,0.00,0.0,WeatherDisplay:10.37,2013-06-22 22:13:00,
2013-06-23 00:18:00,70.3,66.6,30.05,NNE,12,3.5,3.5,88,0.00,CLR,FEW,0.00,0.0,WeatherDisplay:10.37,2013-06-22 22:18:00,
2013-06-23 00:23:00,70.2,66.5,30.05,West,267,1.2,1.2,88,0.00,CLR,FEW,0.00,0.0,WeatherDisplay:10.37,2013-06-22 22:23:00,
2013-06-23 00:28:00,70.2,66.5,30.04,NNW,329,3.5,3.5,88,0.00,CLR,FEW,0.00,0.0,WeatherDisplay:10.37,2013-06-22 22:28:00,
2013-06-23 00:34:00,70.1,66.7,30.04,NNW,329,0.0,0.0,89,0.00,CLR,FEW,0.00,0.0,WeatherDisplay:10.37,2013-06-22 22:34:00,
2013-06-23 00:39:00,69.8,66.4,30.04,NNW,329,0.0,0.0,89,0.00,CLR,FEW,0.00,0.0,WeatherDisplay:10.37,2013-06-22 22:39:00,
2013-06-23 00:44:00,69.7,66.3,30.04,NNW,329,1.2,0.0,89,0.00,CLR,FEW,0.00,0.0,WeatherDisplay:10.37,2013-06-22 22:44:00,
2013-06-23 00:49:00,69.6,66.2,30.03,NNW,329,2.3,2.3,89,0.00,CLR,FEW,0.00,0.0,WeatherDisplay:10.37,2013-06-22 22:49:00,
2013-06-23 00:54:00,69.6,66.5,30.03,NNW,329,1.2,1.2,90,0.00,CLR,FEW,0.00,0.0,WeatherDisplay:10.37,2013-06-22 22:54:00,
2013-06-23 00:59:00,69.5,66.4,30.03,NNW,332,3.5,3.5,90,0.00,CLR,FEW,0.00,0.0,WeatherDisplay:10.37,2013-06-22 22:59:00,
2013-06-23 01:04:00,69.3,66.2,30.03,NNW,347,1.0,1.2,90,0.00,CLR,FEW,0.00,0.0,WeatherDisplay:10.37,2013-06-22 23:04:00,
2013-06-23 01:09:00,69.0,65.9,30.03,North,360,2.3,2.3,90,0.00,CLR,FEW,0.00,0.0,WeatherDisplay:10.37,2013-06-22 23:09:00,
2013-06-23 01:14:00,68.8,65.7,30.02,North,360,2.3,2.3,90,0.00,CLR,FEW,0.00,0.0,WeatherDisplay:10.37,2013-06-22 23:14:00,
2013-06-23 01:19:00,68.7,65.6,30.03,North,360,1.2,1.2,90,0.00,CLR,FEW,0.00,0.0,WeatherDisplay:10.37,2013-06-22 23:19:00,
2013-06-23 01:24:00,68.7,65.6,30.03,North,360,0.0,0.0,90,0.00,CLR,FEW,0.00,0.0,WeatherDisplay:10.37,2013-06-22 23:24:00,
2013-06-23 01:29:00,68.6,65.5,30.03,North,360,2.3,2.3,90,0.00,CLR,FEW,0.00,0.0,WeatherDisplay:10.37,2013-06-22 23:29:00,
2013-06-23 01:35:00,68.6,65.5,30.03,North,360,2.3,0.0,90,0.00,CLR,FEW,0.00,0.0,WeatherDisplay:10.37,2013-06-22 23:35:00,
2013-06-23 01:40:00,68.7,65.3,30.03,North,360,1.2,1.2,89,0.00,CLR,FEW,0.00,0.0,WeatherDisplay:10.37,2013-06-22 23:40:00,
2013-06-23 01:45:00,68.7,65.3,30.03,North,360,0.0,0.0,89,0.00,CLR,FEW,0.00,0.0,WeatherDisplay:10.37,2013-06-22 23:45:00,
2013-06-23 01:50:00,68.5,65.1,30.02,North,360,1.0,1.0,89,0.00,CLR,FEW,0.00,0.0,WeatherDisplay:10.37,2013-06-22 23:50:00,
2013-06-23 01:55:00,68.3,64.9,30.02,North,360,1.2,0.0,89,0.00,CLR,FEW,0.00,0.0,WeatherDisplay:10.37,2013-06-22 23:55:00,
2013-06-23 02:00:00,68.2,64.8,30.02,North,360,1.2,0.0,89,0.00,CLR,FEW,0.00,0.0,WeatherDisplay:10.37,2013-06-23 00:00:00,
2013-06-23 02:05:00,68.2,64.8,30.02,North,360,1.2,1.2,89,0.00,CLR,FEW,0.00,0.0,WeatherDisplay:10.37,2013-06-23 00:05:00,
2013-06-23 02:10:00,68.2,64.8,30.02,North,360,2.3,2.3,89,0.00,CLR,FEW,0.00,0.0,WeatherDisplay:10.37,2013-06-23 00:10:00,
2013-06-23 02:15:00,68.3,64.9,30.01,North,360,1.2,0.0,89,0.00,CLR,FEW,0.00,0.0,WeatherDisplay:10.37,2013-06-23 00:15:00,
2013-06-23 02:20:00,68.3,64.9,30.01,North,360,1.2,1.2,89,0.00,CLR,FEW,0.00,0.0,WeatherDisplay:10.37,2013-06-23 00:20:00,
2013-06-23 02:25:00,68.4,65.0,30.01,North,360,0.0,0.0,89,0.00,CLR,FEW,0.00,0.0,WeatherDisplay:10.37,2013-06-23 00:25:00,
2013-06-23 02:30:00,68.5,64.8,30.01,North,360,2.3,0.0,88,0.00,CLR,FEW,0.00,0.0,WeatherDisplay:10.37,2013-06-23 00:30:00,
2013-06-23 02:35:00,68.5,64.8,30.01,North,360,0.0,0.0,88,0.00,CLR,FEW,0.00,0.0,WeatherDisplay:10.37,2013-06-23 00:35:00,
2013-06-23 02:40:00,68.4,64.7,30.01,North,360,0.0,0.0,88,0.00,CLR,FEW,0.00,0.0,WeatherDisplay:10.37,2013-06-23 00:40:00,
2013-06-23 02:45:00,68.5,64.8,30.01,North,360,2.0,0.0,88,0.00,CLR,FEW,0.00,0.0,WeatherDisplay:10.37,2013-06-23 00:45:00,
2013-06-23 02:50:00,68.5,64.8,30.02,NNW,348,2.3,2.3,88,0.00,CLR,FEW,0.00,0.0,WeatherDisplay:10.37,2013-06-23 00:50:00,
2013-06-23 02:55:00,68.6,64.9,30.02,NNW,348,1.0,0.0,88,0.00,CLR,FEW,0.00,0.0,WeatherDisplay:10.37,2013-06-23 00:55:00,
2013-06-23 03:00:00,68.6,64.9,30.02,NNW,348,1.2,1.2,88,0.00,CLR,FEW,0.00,0.0,WeatherDisplay:10.37,2013-06-23 01:00:00,
2013-06-23 03:05:00,68.8,65.4,30.02,NNW,348,1.2,1.2,89,0.00,CLR,FEW,0.00,0.0,WeatherDisplay:10.37,2013-06-23 01:05:00,
2013-06-23 03:10:00,68.7,65.3,30.02,West,266,2.3,2.3,89,0.00,CLR,FEW,0.00,0.0,WeatherDisplay:10.37,2013-06-23 01:10:00,
2013-06-23 03:15:00,68.8,65.4,30.02,West,266,1.2,1.2,89,0.00,CLR,FEW,0.00,0.0,WeatherDisplay:10.37,2013-06-23 01:15:00,
2013-06-23 03:20:00,68.9,65.5,30.02,West,266,1.2,1.2,89,0.00,CLR,FEW,0.00,0.0,WeatherDisplay:10.37,2013-06-23 01:20:00,
2013-06-23 03:32:00,68.6,65.5,30.02,West,266,2.3,2.3,90,0.00,CLR,FEW,0.00,0.0,WeatherDisplay:10.37,2013-06-23 01:32:00,
2013-06-23 03:37:00,68.5,65.4,30.02,West,265,2.3,2.3,90,0.00,CLR,FEW,0.00,0.0,WeatherDisplay:10.37,2013-06-23 01:37:00,
2013-06-23 03:42:00,68.4,65.4,30.02,West,265,3.5,3.5,90,0.00,CLR,FEW,0.00,0.0,WeatherDisplay:10.37,2013-06-23 01:42:00,
2013-06-23 03:47:00,68.4,65.4,30.01,West,265,1.2,1.2,90,0.00,CLR,FEW,0.00,0.0,WeatherDisplay:10.37,2013-06-23 01:47:00,
2013-06-23 03:52:00,68.4,65.4,30.01,West,265,1.2,1.2,90,0.00,CLR,FEW,0.00,0.0,WeatherDisplay:10.37,2013-06-23 01:52:00,
2013-06-23 04:13:00,68.8,65.7,30.02,West,269,2.0,2.0,90,0.00,CLR,FEW,0.00,0.0,WeatherDisplay:10.37,2013-06-23 02:13:00,
2013-06-23 04:18:00,68.9,65.8,30.01,West,271,2.3,2.3,90,0.00,CLR,FEW,0.00,0.0,WeatherDisplay:10.37,2013-06-23 02:18:00,
2013-06-23 04:23:00,68.9,65.8,30.01,West,267,3.5,3.5,90,0.00,CLR,FEW,0.00,0.0,WeatherDisplay:10.37,2013-06-23 02:23:00,
2013-06-23 04:28:00,69.0,65.9,30.01,West,278,5.8,5.8,90,0.00,CLR,FEW,0.00,0.0,WeatherDisplay:10.37,2013-06-23 02:28:00,
2013-06-23 04:33:00,69.0,65.9,30.01,West,266,3.5,3.5,90,0.00,CLR,FEW,0.00,0.0,WeatherDisplay:10.37,2013-06-23 02:33:00,
2013-06-23 04:38:00,69.0,65.9,30.01,West,263,3.5,3.5,90,0.00,CLR,FEW,0.00,0.0,WeatherDisplay:10.37,2013-06-23 02:38:00,
2013-06-23 04:43:00,68.9,65.8,30.01,West,259,4.6,4.6,90,0.00,CLR,FEW,0.00,0.0,WeatherDisplay:10.37,2013-06-23 02:43:00,
2013-06-23 04:48:00,68.9,65.8,30.01,WSW,258,3.5,3.5,90,0.00,CLR,FEW,0.00,0.0,WeatherDisplay:10.37,2013-06-23 02:48:00,
2013-06-23 04:53:00,68.9,65.8,30.01,WSW,258,3.5,3.5,90,0.00,CLR,FEW,0.00,0.0,WeatherDisplay:10.37,2013-06-23 02:53:00,
2013-06-23 04:58:00,68.9,65.8,30.01,WSW,258,3.5,3.5,90,0.00,CLR,FEW,0.00,0.0,WeatherDisplay:10.37,2013-06-23 02:58:00,
2013-06-23 05:03:00,68.8,65.7,30.01,WSW,258,1.2,1.2,90,0.00,OVC,FEW,0.00,0.0,WeatherDisplay:10.37,2013-06-23 03:03:00,
2013-06-23 05:08:00,68.8,65.7,30.01,WSW,257,3.5,3.5,90,0.00,OVC,FEW,0.00,0.0,WeatherDisplay:10.37,2013-06-23 03:08:00,
2013-06-23 05:13:00,68.7,65.6,30.01,West,272,3.5,3.5,90,0.00,OVC,FEW,0.00,0.0,WeatherDisplay:10.37,2013-06-23 03:13:00,
2013-06-23 05:18:00,68.6,65.9,30.02,West,263,3.5,3.5,91,0.00,OVC,FEW,0.00,0.0,WeatherDisplay:10.37,2013-06-23 03:18:00,
2013-06-23 05:23:00,68.7,66.0,30.01,West,263,3.5,3.5,91,0.00,OVC,FEW,0.00,0.0,WeatherDisplay:10.37,2013-06-23 03:23:00,
2013-06-23 05:28:00,68.7,66.0,30.01,West,263,1.2,1.2,91,0.00,OVC,FEW,0.00,0.0,WeatherDisplay:10.37,2013-06-23 03:28:00,
2013-06-23 05:33:00,68.6,65.9,30.01,West,263,3.5,3.5,91,0.00,OVC,FEW,0.00,0.0,WeatherDisplay:10.37,2013-06-23 03:33:00,
2013-06-23 05:38:00,68.6,65.9,30.01,West,263,3.5,0.0,91,0.00,OVC,FEW,0.00,0.0,WeatherDisplay:10.37,2013-06-23 03:38:00,
2013-06-23 05:45:00,68.6,65.9,30.01,West,263,1.2,1.2,91,0.00,OVC,FEW,0.00,0.0,WeatherDisplay:10.37,2013-06-23 03:45:00,
2013-06-23 05:50:00,68.6,65.9,30.01,West,267,4.0,4.0,91,0.00,OVC,FEW,0.00,0.0,WeatherDisplay:10.37,2013-06-23 03:50:00,
2013-06-23 05:55:00,68.6,65.9,30.01,WSW,252,2.3,2.3,91,0.00,OVC,FEW,0.00,0.0,WeatherDisplay:10.37,2013-06-23 03:55:00,
2013-06-23 06:00:00,68.7,66.0,30.01,WSW,252,0.0,0.0,91,0.00,OVC,FEW,0.00,0.0,WeatherDisplay:10.37,2013-06-23 04:00:00,
2013-06-23 06:01:00,68.7,66.0,30.01,WSW,252,0.0,0.0,91,0.00,OVC,FEW,0.00,0.0,WeatherDisplay:10.37,2013-06-23 04:01:00,
2013-06-23 06:06:00,68.7,66.0,30.01,WSW,252,2.3,2.3,91,0.00,OVC,FEW,0.00,0.0,WeatherDisplay:10.37,2013-06-23 04:06:00,
2013-06-23 06:11:00,68.8,66.1,30.01,WSW,252,1.2,1.2,91,0.00,OVC,FEW,0.00,0.0,WeatherDisplay:10.37,2013-06-23 04:11:00,
2013-06-23 06:16:00,68.9,66.2,30.01,WSW,252,0.0,0.0,91,0.00,OVC,FEW,0.00,0.0,WeatherDisplay:10.37,2013-06-23 04:16:00,
2013-06-23 06:21:00,68.9,66.2,30.01,WSW,252,1.2,1.2,91,0.00,OVC,FEW,0.00,0.0,WeatherDisplay:10.37,2013-06-23 04:21:00,
2013-06-23 06:26:00,69.0,66.3,30.01,WSW,252,1.2,1.2,91,0.00,OVC,FEW,0.00,0.0,WeatherDisplay:10.37,2013-06-23 04:26:00,
2013-06-23 06:31:00,69.1,66.4,30.00,WSW,252,0.0,0.0,91,0.00,OVC,FEW,0.00,0.0,WeatherDisplay:10.37,2013-06-23 04:31:00,
2013-06-23 06:36:00,69.1,66.4,30.00,WSW,252,0.0,0.0,91,0.00,OVC,FEW,0.00,0.0,WeatherDisplay:10.37,2013-06-23 04:36:00,
2013-06-23 06:41:00,69.2,66.5,30.01,WSW,252,1.2,0.0,91,0.00,OVC,FEW,0.00,0.0,WeatherDisplay:10.37,2013-06-23 04:41:00,
2013-06-23 06:46:00,69.3,66.2,30.01,WSW,252,1.2,1.2,90,0.00,OVC,FEW,0.00,0.0,WeatherDisplay:10.37,2013-06-23 04:46:00,
2013-06-23 06:51:00,69.4,66.3,30.02,WSW,252,3.5,3.5,90,0.00,OVC,FEW,0.00,0.0,WeatherDisplay:10.37,2013-06-23 04:51:00,
2013-06-23 06:57:00,69.5,66.4,30.02,WSW,252,2.3,2.3,90,0.00,OVC,FEW,0.00,0.0,WeatherDisplay:10.37,2013-06-23 04:57:00,
2013-06-23 07:02:00,69.7,66.6,30.01,WSW,258,3.5,3.5,90,0.00,OVC,FEW,0.00,0.0,WeatherDisplay:10.37,2013-06-23 05:02:00,
2013-06-23 07:07:00,69.8,66.7,30.01,SW,224,3.5,3.5,90,0.00,OVC,FEW,0.00,0.0,WeatherDisplay:10.37,2013-06-23 05:07:00,
2013-06-23 07:12:00,69.8,66.7,30.01,SW,232,3.5,3.5,90,0.00,OVC,FEW,0.00,0.0,WeatherDisplay:10.37,2013-06-23 05:12:00,
2013-06-23 07:18:00,69.8,66.7,30.01,SW,232,3.5,3.5,90,0.00,OVC,FEW,0.00,0.0,WeatherDisplay:10.37,2013-06-23 05:18:00,
2013-06-23 07:23:00,69.7,66.6,30.01,SW,232,2.3,2.3,90,0.00,OVC,FEW,0.00,0.0,WeatherDisplay:10.37,2013-06-23 05:23:00,
2013-06-23 07:28:00,69.6,66.5,30.02,SW,232,2.3,2.3,90,0.00,OVC,FEW,0.00,0.0,WeatherDisplay:10.37,2013-06-23 05:28:00,
2013-06-23 07:33:00,69.5,66.4,30.01,SW,232,3.5,3.5,90,0.00,OVC,FEW,0.00,0.0,WeatherDisplay:10.37,2013-06-23 05:33:00,
2013-06-23 07:38:00,69.4,66.3,30.02,SW,227,3.5,3.5,90,0.00,OVC,FEW,0.00,0.0,WeatherDisplay:10.37,2013-06-23 05:38:00,
2013-06-23 07:43:00,69.5,66.4,30.02,SW,232,3.5,3.5,90,0.00,OVC,FEW,0.00,0.0,WeatherDisplay:10.37,2013-06-23 05:43:00,
2013-06-23 07:48:00,69.6,66.5,30.02,WSW,249,3.5,3.5,90,0.00,OVC,FEW,0.00,0.0,WeatherDisplay:10.37,2013-06-23 05:48:00,
2013-06-23 07:53:00,69.6,66.5,30.02,SSW,194,4.6,4.6,90,0.00,OVC,FEW,0.00,0.0,WeatherDisplay:10.37,2013-06-23 05:53:00,
2013-06-23 07:58:00,69.8,66.7,30.02,WSW,253,4.6,4.6,90,0.00,OVC,FEW,0.00,0.0,WeatherDisplay:10.37,2013-06-23 05:58:00,
2013-06-23 08:01:00,69.8,66.7,30.02,WSW,253,2.3,2.3,90,0.00,OVC,FEW,0.00,0.0,WeatherDisplay:10.37,2013-06-23 06:01:00,
2013-06-23 08:06:00,69.9,66.8,30.02,West,259,3.5,3.5,90,0.00,OVC,FEW,0.00,0.0,WeatherDisplay:10.37,2013-06-23 06:06:00,
2013-06-23 08:11:00,70.2,66.8,30.02,West,259,0.0,0.0,89,0.00,OVC,FEW,0.00,0.0,WeatherDisplay:10.37,2013-06-23 06:11:00,
2013-06-23 08:16:00,70.4,67.0,30.03,West,259,1.2,1.2,89,0.00,OVC,FEW,0.00,0.0,WeatherDisplay:10.37,2013-06-23 06:16:00,
2013-06-23 08:21:00,70.3,66.9,30.03,West,265,3.5,3.5,89,0.00,OVC,FEW,0.00,0.0,WeatherDisplay:10.37,2013-06-23 06:21:00,
2013-06-23 08:26:00,70.2,66.8,30.03,West,265,3.5,3.5,89,0.00,OVC,FEW,0.00,0.0,WeatherDisplay:10.37,2013-06-23 06:26:00,
2013-06-23 08:31:00,70.1,66.7,30.03,West,265,1.2,1.2,89,0.00,OVC,FEW,0.00,0.0,WeatherDisplay:10.37,2013-06-23 06:31:00,
2013-06-23 08:36:00,69.9,66.8,30.03,West,265,1.2,1.2,90,0.00,OVC,FEW,0.00,0.0,WeatherDisplay:10.37,2013-06-23 06:36:00,
2013-06-23 08:41:00,69.8,66.7,30.02,West,265,1.2,1.2,90,0.00,OVC,FEW,0.00,0.0,WeatherDisplay:10.37,2013-06-23 06:41:00,
2013-06-23 08:46:00,69.7,66.6,30.03,West,265,0.0,0.0,90,0.00,OVC,FEW,0.00,0.0,WeatherDisplay:10.37,2013-06-23 06:46:00,
2013-06-23 08:51:00,70.0,67.3,30.03,West,265,2.3,2.3,91,0.00,OVC,FEW,0.00,0.0,WeatherDisplay:10.37,2013-06-23 06:51:00,
2013-06-23 08:56:00,69.9,67.2,30.02,West,265,2.0,2.0,91,0.00,OVC,FEW,0.00,0.0,WeatherDisplay:10.37,2013-06-23 06:56:00,
2013-06-23 09:01:00,69.4,66.3,30.02,SE,124,5.8,5.8,90,0.00,OVC,FEW,0.00,0.0,WeatherDisplay:10.37,2013-06-23 07:01:00,
2013-06-23 09:06:00,69.6,66.5,30.02,ESE,103,3.5,3.5,90,0.01,RA,FEW,0.01,0.0,WeatherDisplay:10.37,2013-06-23 07:06:00,
2013-06-23 09:11:00,70.5,67.4,30.02,ESE,103,2.0,2.0,90,0.01,RA,FEW,0.01,0.0,WeatherDisplay:10.37,2013-06-23 07:11:00,
2013-06-23 09:16:00,70.8,67.7,30.02,East,101,2.3,2.3,90,0.01,OVC,FEW,0.01,0.0,WeatherDisplay:10.37,2013-06-23 07:16:00,
2013-06-23 09:21:00,70.4,66.7,30.02,ESE,102,2.3,2.3,88,0.01,OVC,FEW,0.01,0.0,WeatherDisplay:10.37,2013-06-23 07:21:00,
2013-06-23 09:26:00,70.5,67.1,30.02,SW,219,3.5,3.5,89,0.01,OVC,FEW,0.01,0.0,WeatherDisplay:10.37,2013-06-23 07:26:00,
2013-06-23 09:31:00,70.7,67.3,30.02,SW,229,4.6,4.6,89,0.01,OVC,FEW,0.01,0.0,WeatherDisplay:10.37,2013-06-23 07:31:00,
2013-06-23 09:36:00,71.0,67.6,30.03,SSW,211,4.0,4.0,89,0.01,OVC,FEW,0.01,0.0,WeatherDisplay:10.37,2013-06-23 07:36:00,
2013-06-23 09:41:00,71.3,68.2,30.03,SSW,203,6.0,6.0,90,0.01,OVC,FEW,0.01,0.0,WeatherDisplay:10.37,2013-06-23 07:41:00,
2013-06-23 09:46:00,71.3,67.9,30.03,WSW,241,3.5,3.5,89,0.01,OVC,FEW,0.01,0.0,WeatherDisplay:10.37,2013-06-23 07:46:00,
2013-06-23 09:51:00,70.9,67.5,30.02,SW,226,4.6,4.6,89,0.01,OVC,FEW,0.01,0.0,WeatherDisplay:10.37,2013-06-23 07:51:00,
2013-06-23 09:56:00,70.9,67.5,30.02,SW,228,3.5,3.5,89,0.01,OVC,FEW,0.01,0.0,WeatherDisplay:10.37,2013-06-23 07:56:00,
2013-06-23 10:01:00,71.1,68.0,30.02,SSW,200,4.6,4.6,90,0.01,OVC,FEW,0.01,0.0,WeatherDisplay:10.37,2013-06-23 08:01:00,
2013-06-23 10:06:00,72.3,68.9,30.03,WSW,242,3.5,3.5,89,0.00,OVC,FEW,0.01,0.0,WeatherDisplay:10.37,2013-06-23 08:06:00,
2013-06-23 10:11:00,72.8,69.0,30.03,West,271,5.8,5.8,88,0.00,OVC,FEW,0.01,0.0,WeatherDisplay:10.37,2013-06-23 08:11:00,
2013-06-23 10:16:00,73.3,69.2,30.03,SW,220,4.6,4.6,87,0.00,OVC,FEW,0.01,0.0,WeatherDisplay:10.37,2013-06-23 08:16:00,
2013-06-23 10:21:00,74.2,69.4,30.03,SW,236,6.9,6.9,85,0.00,OVC,FEW,0.01,0.0,WeatherDisplay:10.37,2013-06-23 08:21:00,
2013-06-23 10:26:00,74.0,69.2,30.03,WSW,245,4.6,4.6,85,0.00,OVC,FEW,0.01,0.0,WeatherDisplay:10.37,2013-06-23 08:26:00,
2013-06-23 10:31:00,74.8,70.0,30.02,West,265,6.9,6.9,85,0.00,OVC,FEW,0.01,0.0,WeatherDisplay:10.37,2013-06-23 08:31:00,
2013-06-23 10:36:00,74.5,69.3,30.03,WSW,258,6.9,6.9,84,0.00,OVC,FEW,0.01,0.0,WeatherDisplay:10.37,2013-06-23 08:36:00,
2013-06-23 10:41:00,74.3,68.8,30.02,WSW,245,4.6,4.6,83,0.00,OVC,FEW,0.01,0.0,WeatherDisplay:10.37,2013-06-23 08:41:00,
2013-06-23 10:46:00,74.3,68.8,30.02,West,261,6.9,6.9,83,0.00,OVC,FEW,0.01,0.0,WeatherDisplay:10.37,2013-06-23 08:46:00,
2013-06-23 10:51:00,74.3,68.4,30.02,West,263,6.9,6.9,82,0.00,OVC,FEW,0.01,0.0,WeatherDisplay:10.37,2013-06-23 08:51:00,
2013-06-23 10:56:00,75.1,69.6,30.02,West,272,5.0,5.0,83,0.00,OVC,FEW,0.01,0.0,WeatherDisplay:10.37,2013-06-23 08:56:00,
2013-06-23 11:01:00,74.6,68.7,30.02,SW,232,4.6,4.6,82,0.00,OVC,FEW,0.01,0.0,WeatherDisplay:10.37,2013-06-23 09:01:00,
2013-06-23 11:06:00,75.1,68.9,30.02,NNW,336,5.8,5.8,81,0.00,OVC,FEW,0.01,0.0,WeatherDisplay:10.37,2013-06-23 09:06:00,
2013-06-23 11:11:00,75.6,69.0,30.02,West,269,3.5,3.5,80,0.00,OVC,FEW,0.01,0.0,WeatherDisplay:10.37,2013-06-23 09:11:00,
2013-06-23 11:16:00,74.9,68.3,30.02,WNW,290,8.1,8.1,80,0.00,OVC,FEW,0.01,0.0,WeatherDisplay:10.37,2013-06-23 09:16:00,
2013-06-23 11:21:00,75.0,68.8,30.02,West,263,4.6,4.6,81,0.00,OVC,FEW,0.01,0.0,WeatherDisplay:10.37,2013-06-23 09:21:00,
2013-06-23 11:26:00,74.7,68.8,30.02,West,262,5.8,5.8,82,0.00,OVC,FEW,0.01,0.0,WeatherDisplay:10.37,2013-06-23 09:26:00,
2013-06-23 11:31:00,74.8,68.9,30.02,WSW,250,6.0,6.0,82,0.00,OVC,FEW,0.01,0.0,WeatherDisplay:10.37,2013-06-23 09:31:00,
2013-06-23 11:36:00,75.1,69.2,30.01,West,271,5.8,5.8,82,0.00,OVC,FEW,0.01,0.0,WeatherDisplay:10.37,2013-06-23 09:36:00,
2013-06-23 11:41:00,75.4,69.5,30.01,West,265,6.0,6.0,82,0.00,OVC,FEW,0.01,0.0,WeatherDisplay:10.37,2013-06-23 09:41:00,
2013-06-23 11:46:00,75.0,68.8,30.01,West,259,5.8,5.8,81,0.00,OVC,FEW,0.01,0.0,WeatherDisplay:10.37,2013-06-23 09:46:00,
2013-06-23 11:51:00,74.8,68.6,30.01,West,280,6.9,6.9,81,0.00,OVC,FEW,0.01,0.0,WeatherDisplay:10.37,2013-06-23 09:51:00,
2013-06-23 11:56:00,74.5,68.3,30.01,SW,229,5.8,5.8,81,0.00,OVC,FEW,0.01,0.0,WeatherDisplay:10.37,2013-06-23 09:56:00,
2013-06-23 12:01:00,75.2,69.3,30.01,WSW,252,7.0,7.0,82,0.00,OVC,FEW,0.01,0.0,WeatherDisplay:10.37,2013-06-23 10:01:00,
2013-06-23 12:06:00,75.1,68.9,30.01,SW,223,6.9,6.9,81,0.00,OVC,FEW,0.01,0.0,WeatherDisplay:10.37,2013-06-23 10:06:00,
2013-06-23 12:11:00,75.7,69.1,30.01,West,265,8.1,8.1,80,0.00,OVC,FEW,0.01,0.0,WeatherDisplay:10.37,2013-06-23 10:11:00,
2013-06-23 12:16:00,76.1,69.1,30.01,WSW,247,5.8,5.8,79,0.00,OVC,FEW,0.01,0.0,WeatherDisplay:10.37,2013-06-23 10:16:00,
2013-06-23 12:21:00,75.8,69.6,30.01,SW,214,4.6,4.6,81,0.00,OVC,FEW,0.01,0.0,WeatherDisplay:10.37,2013-06-23 10:21:00,
2013-06-23 12:26:00,75.9,69.3,30.01,WSW,238,5.8,5.8,80,0.00,OVC,FEW,0.01,0.0,WeatherDisplay:10.37,2013-06-23 10:26:00,
2013-06-23 12:31:00,75.4,68.8,30.01,West,261,5.8,5.8,80,0.00,OVC,FEW,0.01,0.0,WeatherDisplay:10.37,2013-06-23 10:31:00,
2013-06-23 12:36:00,75.7,69.1,30.01,West,259,4.6,4.6,80,0.00,OVC,FEW,0.01,0.0,WeatherDisplay:10.37,2013-06-23 10:36:00,
2013-06-23 12:41:00,76.1,69.1,30.01,NW,311,8.1,8.1,79,0.00,OVC,FEW,0.01,0.0,WeatherDisplay:10.37,2013-06-23 10:41:00,
2013-06-23 12:46:00,76.2,69.6,30.01,WSW,254,6.0,6.0,80,0.00,OVC,FEW,0.01,0.0,WeatherDisplay:10.37,2013-06-23 10:46:00,
2013-06-23 12:52:00,75.8,68.8,30.01,NW,317,5.8,5.8,79,0.00,OVC,FEW,0.01,0.0,WeatherDisplay:10.37,2013-06-23 10:52:00,
2013-06-23 12:57:00,76.2,69.2,30.01,West,263,8.1,8.1,79,0.00,OVC,FEW,0.01,0.0,WeatherDisplay:10.37,2013-06-23 10:57:00,
2013-06-23 13:02:00,76.2,69.2,30.01,WSW,245,6.9,6.9,79,0.00,OVC,FEW,0.01,0.0,WeatherDisplay:10.37,2013-06-23 11:02:00,
2013-06-23 13:07:00,76.3,69.3,30.01,West,275,9.2,9.2,79,0.00,OVC,FEW,0.01,0.0,WeatherDisplay:10.37,2013-06-23 11:07:00,
2013-06-23 13:12:00,76.7,68.9,30.01,South,188,9.2,9.2,77,0.00,OVC,FEW,0.01,0.0,WeatherDisplay:10.37,2013-06-23 11:12:00,
2013-06-23 13:17:00,77.0,69.2,30.00,West,274,6.9,6.9,77,0.00,OVC,FEW,0.01,0.0,WeatherDisplay:10.37,2013-06-23 11:17:00,
2013-06-23 13:22:00,76.8,68.7,30.00,WSW,245,7.0,7.0,76,0.00,OVC,FEW,0.01,0.0,WeatherDisplay:10.37,2013-06-23 11:22:00,
2013-06-23 13:27:00,77.6,69.0,30.00,SW,234,9.2,9.2,75,0.00,OVC,FEW,0.01,0.0,WeatherDisplay:10.37,2013-06-23 11:27:00,
2013-06-23 13:32:00,77.6,69.0,30.00,WNW,296,8.1,8.1,75,0.00,OVC,FEW,0.01,0.0,WeatherDisplay:10.37,2013-06-23 11:32:00,
2013-06-23 13:37:00,78.0,69.8,30.00,WSW,258,5.8,5.8,76,0.00,OVC,FEW,0.01,0.0,WeatherDisplay:10.37,2013-06-23 11:37:00,
2013-06-23 13:42:00,77.1,69.3,30.00,West,275,9.2,9.2,77,0.00,OVC,FEW,0.01,0.0,WeatherDisplay:10.37,2013-06-23 11:42:00,
2013-06-23 13:47:00,77.3,69.5,30.00,WNW,298,6.9,6.9,77,0.00,OVC,FEW,0.01,0.0,WeatherDisplay:10.37,2013-06-23 11:47:00,
2013-06-23 13:52:00,77.2,69.4,30.00,WSW,254,6.9,6.9,77,0.00,OVC,FEW,0.01,0.0,WeatherDisplay:10.37,2013-06-23 11:52:00,
2013-06-23 13:57:00,78.3,70.9,30.00,West,265,6.9,6.9,78,0.00,OVC,FEW,0.01,0.0,WeatherDisplay:10.37,2013-06-23 11:57:00,
2013-06-23 14:02:00,77.8,69.6,30.00,WSW,248,5.8,5.8,76,0.00,OVC,FEW,0.01,0.0,WeatherDisplay:10.37,2013-06-23 12:02:00,
2013-06-23 14:07:00,77.2,69.4,30.00,West,264,11.5,11.5,77,0.00,OVC,FEW,0.01,0.0,WeatherDisplay:10.37,2013-06-23 12:07:00,
2013-06-23 14:12:00,77.1,69.3,30.00,WNW,293,10.4,10.4,77,0.00,OVC,FEW,0.01,0.0,WeatherDisplay:10.37,2013-06-23 12:12:00,
2013-06-23 14:17:00,77.1,69.3,30.00,West,268,9.2,9.2,77,0.00,OVC,FEW,0.01,0.0,WeatherDisplay:10.37,2013-06-23 12:17:00,
2013-06-23 14:24:00,76.6,69.2,30.00,West,262,6.9,6.9,78,0.00,OVC,FEW,0.01,0.0,WeatherDisplay:10.37,2013-06-23 12:24:00,
2013-06-23 14:30:00,76.6,68.8,30.00,NNW,337,8.1,8.1,77,0.00,OVC,FEW,0.01,0.0,WeatherDisplay:10.37,2013-06-23 12:30:00,
2013-06-23 14:35:00,77.3,69.5,30.00,WSW,250,9.0,9.0,77,0.00,OVC,FEW,0.01,0.0,WeatherDisplay:10.37,2013-06-23 12:35:00,
2013-06-23 14:40:00,77.2,69.0,30.00,SW,219,11.0,11.0,76,0.00,OVC,FEW,0.01,0.0,WeatherDisplay:10.37,2013-06-23 12:40:00,
2013-06-23 14:45:00,76.8,68.7,30.00,West,271,11.5,11.5,76,0.00,OVC,FEW,0.01,0.0,WeatherDisplay:10.37,2013-06-23 12:45:00,
2013-06-23 14:50:00,77.1,68.6,30.00,SW,232,6.9,6.9,75,0.00,OVC,FEW,0.01,0.0,WeatherDisplay:10.37,2013-06-23 12:50:00,
2013-06-23 14:56:00,77.1,68.6,30.00,West,267,9.2,9.2,75,0.00,OVC,FEW,0.01,0.0,WeatherDisplay:10.37,2013-06-23 12:56:00,
2013-06-23 15:01:00,76.3,68.2,30.00,WNW,294,9.2,9.2,76,0.00,OVC,FEW,0.01,0.0,WeatherDisplay:10.37,2013-06-23 13:01:00,
2013-06-23 15:06:00,77.1,68.6,30.00,NW,325,6.9,6.9,75,0.00,OVC,FEW,0.01,0.0,WeatherDisplay:10.37,2013-06-23 13:06:00,
2013-06-23 15:11:00,76.6,68.5,30.00,WSW,251,8.1,8.1,76,0.00,OVC,FEW,0.01,0.0,WeatherDisplay:10.37,2013-06-23 13:11:00,
2013-06-23 15:16:00,77.0,68.9,30.00,WNW,282,10.4,10.4,76,0.00,OVC,FEW,0.01,0.0,WeatherDisplay:10.37,2013-06-23 13:16:00,
2013-06-23 15:21:00,76.0,68.3,30.00,NW,312,9.2,9.2,77,0.00,OVC,FEW,0.01,0.0,WeatherDisplay:10.37,2013-06-23 13:21:00,
2013-06-23 15:26:00,75.8,68.4,30.00,West,261,10.4,10.4,78,0.00,OVC,FEW,0.01,0.0,WeatherDisplay:10.37,2013-06-23 13:26:00,
2013-06-23 15:31:00,76.3,68.6,30.00,West,276,3.0,12.0,77,0.00,OVC,FEW,0.01,0.0,WeatherDisplay:10.37,2013-06-23 13:31:00,
2013-06-23 15:36:00,75.6,68.3,30.00,WNW,286,9.2,9.2,78,0.00,OVC,FEW,0.01,0.0,WeatherDisplay:10.37,2013-06-23 13:36:00,
2013-06-23 15:41:00,75.3,68.0,30.00,West,259,11.5,11.5,78,0.00,OVC,FEW,0.01,0.0,WeatherDisplay:10.37,2013-06-23 13:41:00,
2013-06-23 15:46:00,75.5,68.5,30.00,WSW,245,8.1,8.1,79,0.00,OVC,FEW,0.01,0.0,WeatherDisplay:10.37,2013-06-23 13:46:00,
2013-06-23 15:51:00,75.4,68.1,30.00,West,277,4.6,4.6,78,0.00,OVC,FEW,0.01,0.0,WeatherDisplay:10.37,2013-06-23 13:51:00,
2013-06-23 15:56:00,74.9,68.3,30.00,WSW,255,10.4,10.4,80,0.00,OVC,FEW,0.01,0.0,WeatherDisplay:10.37,2013-06-23 13:56:00,
2013-06-23 16:01:00,74.6,67.7,30.00,West,280,10.4,10.4,79,0.00,OVC,FEW,0.01,0.0,WeatherDisplay:10.37,2013-06-23 14:01:00,
2013-06-23 16:07:00,74.8,67.8,30.00,West,276,6.9,6.9,79,0.00,OVC,FEW,0.01,0.0,WeatherDisplay:10.37,2013-06-23 14:07:00,
2013-06-23 16:12:00,74.9,67.9,29.99,WSW,253,6.9,6.9,79,0.00,OVC,FEW,0.01,0.0,WeatherDisplay:10.37,2013-06-23 14:12:00,
2013-06-23 16:17:00,75.0,67.7,29.99,WSW,253,8.1,8.1,78,0.00,OVC,FEW,0.01,0.0,WeatherDisplay:10.37,2013-06-23 14:17:00,
2013-06-23 16:22:00,75.2,67.9,29.99,SW,229,5.8,5.8,78,0.00,OVC,FEW,0.01,0.0,WeatherDisplay:10.37,2013-06-23 14:22:00,
2013-06-23 16:28:00,74.9,67.9,29.99,WNW,298,6.9,6.9,79,0.00,OVC,FEW,0.01,0.0,WeatherDisplay:10.37,2013-06-23 14:28:00,
2013-06-23 16:33:00,74.7,67.8,29.99,WNW,301,6.9,6.9,79,0.00,OVC,FEW,0.01,0.0,WeatherDisplay:10.37,2013-06-23 14:33:00,
2013-06-23 16:38:00,74.7,67.4,29.99,West,272,10.4,10.4,78,0.00,OVC,FEW,0.01,0.0,WeatherDisplay:10.37,2013-06-23 14:38:00,
2013-06-23 16:43:00,75.1,67.8,29.99,West,276,6.0,6.0,78,0.00,OVC,FEW,0.01,0.0,WeatherDisplay:10.37,2013-06-23 14:43:00,
2013-06-23 16:48:00,74.8,67.5,29.99,WNW,286,8.0,8.0,78,0.00,OVC,FEW,0.01,0.0,WeatherDisplay:10.37,2013-06-23 14:48:00,
2013-06-23 16:53:00,74.6,67.7,29.99,West,279,9.2,9.2,79,0.00,OVC,FEW,0.01,0.0,WeatherDisplay:10.37,2013-06-23 14:53:00,
2013-06-23 16:58:00,74.4,67.5,29.99,SW,215,6.9,6.9,79,0.00,OVC,FEW,0.01,0.0,WeatherDisplay:10.37,2013-06-23 14:58:00,
2013-06-23 17:03:00,74.5,67.6,29.99,WNW,302,6.9,6.9,79,0.00,OVC,FEW,0.01,0.0,WeatherDisplay:10.37,2013-06-23 15:03:00,
2013-06-23 17:09:00,74.5,67.6,29.98,WNW,286,10.4,10.4,79,0.00,OVC,FEW,0.01,0.0,WeatherDisplay:10.37,2013-06-23 15:09:00,
2013-06-23 17:14:00,74.8,67.8,29.98,West,281,6.9,6.9,79,0.00,OVC,FEW,0.01,0.0,WeatherDisplay:10.37,2013-06-23 15:14:00,
2013-06-23 17:19:00,74.5,67.2,29.98,WNW,293,6.9,6.9,78,0.00,OVC,FEW,0.01,0.0,WeatherDisplay:10.37,2013-06-23 15:19:00,
2013-06-23 17:25:00,74.3,67.4,29.98,West,264,7.0,7.0,79,0.00,OVC,FEW,0.01,0.0,WeatherDisplay:10.37,2013-06-23 15:25:00,
2013-06-23 17:30:00,74.5,67.2,29.98,West,270,5.8,5.8,78,0.00,OVC,FEW,0.01,0.0,WeatherDisplay:10.37,2013-06-23 15:30:00,
2013-06-23 17:35:00,74.0,67.1,29.98,West,273,11.5,11.5,79,0.00,OVC,FEW,0.01,0.0,WeatherDisplay:10.37,2013-06-23 15:35:00,
2013-06-23 17:40:00,73.6,67.0,29.98,WSW,258,6.9,6.9,80,0.00,OVC,FEW,0.01,0.0,WeatherDisplay:10.37,2013-06-23 15:40:00,
2013-06-23 17:45:00,73.5,67.3,29.98,WSW,242,6.9,6.9,81,0.00,OVC,FEW,0.01,0.0,WeatherDisplay:10.37,2013-06-23 15:45:00,
2013-06-23 17:51:00,73.7,67.1,29.98,WNW,290,6.9,6.9,80,0.00,OVC,FEW,0.01,0.0,WeatherDisplay:10.37,2013-06-23 15:51:00,
2013-06-23 17:56:00,73.4,67.2,29.98,WSW,248,8.1,8.1,81,0.00,OVC,FEW,0.01,0.0,WeatherDisplay:10.37,2013-06-23 15:56:00,
2013-06-23 18:01:00,72.8,67.0,29.98,WNW,286,9.2,9.2,82,0.00,OVC,FEW,0.01,0.0,WeatherDisplay:10.37,2013-06-23 16:01:00,
2013-06-23 18:07:00,72.9,67.1,29.98,NW,325,12.7,12.7,82,0.00,OVC,FEW,0.01,0.0,WeatherDisplay:10.37,2013-06-23 16:07:00,
2013-06-23 18:12:00,73.3,67.1,29.98,WSW,257,6.9,6.9,81,0.00,OVC,FEW,0.01,0.0,WeatherDisplay:10.37,2013-06-23 16:12:00,
2013-06-23 18:17:00,73.4,67.2,29.98,West,262,6.9,6.9,81,0.00,OVC,FEW,0.01,0.0,WeatherDisplay:10.37,2013-06-23 16:17:00,
2013-06-23 18:22:00,73.2,67.0,29.98,West,278,5.8,5.8,81,0.00,OVC,FEW,0.01,0.0,WeatherDisplay:10.37,2013-06-23 16:22:00,
2013-06-23 18:27:00,72.9,67.1,29.98,SW,236,8.1,8.1,82,0.00,OVC,FEW,0.01,0.0,WeatherDisplay:10.37,2013-06-23 16:27:00,
2013-06-23 18:32:00,73.1,67.3,29.98,West,280,8.1,8.1,82,0.00,OVC,FEW,0.01,0.0,WeatherDisplay:10.37,2013-06-23 16:32:00,
2013-06-23 18:37:00,73.2,67.4,29.98,NW,318,8.1,8.1,82,0.00,OVC,FEW,0.01,0.0,WeatherDisplay:10.37,2013-06-23 16:37:00,
2013-06-23 18:43:00,72.7,66.9,29.98,West,264,5.8,5.8,82,0.00,OVC,FEW,0.01,0.0,WeatherDisplay:10.37,2013-06-23 16:43:00,
2013-06-23 18:48:00,72.9,66.7,29.98,WNW,294,5.8,5.8,81,0.00,OVC,FEW,0.01,0.0,WeatherDisplay:10.37,2013-06-23 16:48:00,
2013-06-23 18:54:00,73.1,66.6,29.98,West,267,6.9,6.9,80,0.00,OVC,FEW,0.01,0.0,WeatherDisplay:10.37,2013-06-23 16:54:00,
2013-06-23 18:57:00,73.0,66.8,29.98,WSW,253,3.5,3.5,81,0.00,OVC,FEW,0.01,0.0,WeatherDisplay:10.37,2013-06-23 16:57:00,
2013-06-23 18:58:00,72.9,66.7,29.98,SW,225,4.6,4.6,81,0.00,OVC,FEW,0.01,0.0,WeatherDisplay:10.37,2013-06-23 16:58:00,
2013-06-23 19:03:00,73.0,67.2,29.98,West,265,5.8,5.8,82,0.00,OVC,FEW,0.01,0.0,WeatherDisplay:10.37,2013-06-23 17:03:00,
2013-06-23 19:09:00,73.1,67.3,29.98,West,272,3.5,3.5,82,0.00,OVC,FEW,0.01,0.0,WeatherDisplay:10.37,2013-06-23 17:09:00,
2013-06-23 19:14:00,73.5,67.3,29.97,WNW,300,4.6,4.6,81,0.00,OVC,FEW,0.01,0.0,WeatherDisplay:10.37,2013-06-23 17:14:00,
2013-06-23 19:19:00,73.7,67.5,29.97,West,262,2.3,2.3,81,0.00,OVC,FEW,0.01,0.0,WeatherDisplay:10.37,2013-06-23 17:19:00,
2013-06-23 19:24:00,73.4,67.2,29.97,WNW,287,3.5,3.5,81,0.00,OVC,FEW,0.01,0.0,WeatherDisplay:10.37,2013-06-23 17:24:00,
2013-06-23 19:29:00,73.3,67.1,29.97,NW,324,3.5,3.5,81,0.00,OVC,FEW,0.01,0.0,WeatherDisplay:10.37,2013-06-23 17:29:00,
2013-06-23 19:34:00,72.7,66.5,29.97,WNW,282,2.3,2.3,81,0.00,OVC,FEW,0.01,0.0,WeatherDisplay:10.37,2013-06-23 17:34:00,
2013-06-23 19:39:00,72.2,66.4,29.97,WNW,286,1.2,1.2,82,0.00,OVC,FEW,0.01,0.0,WeatherDisplay:10.37,2013-06-23 17:39:00,
2013-06-23 19:45:00,71.7,65.9,29.97,West,273,2.3,2.3,82,0.00,OVC,FEW,0.01,0.0,WeatherDisplay:10.37,2013-06-23 17:45:00,
2013-06-23 19:50:00,71.6,66.2,29.97,West,263,4.0,4.0,83,0.00,OVC,FEW,0.01,0.0,WeatherDisplay:10.37,2013-06-23 17:50:00,
2013-06-23 19:55:00,71.5,66.4,29.97,West,280,3.5,3.5,84,0.00,OVC,FEW,0.01,0.0,WeatherDisplay:10.37,2013-06-23 17:55:00,
2013-06-23 20:00:00,71.6,66.5,29.97,WNW,288,2.3,2.3,84,0.00,OVC,FEW,0.01,0.0,WeatherDisplay:10.37,2013-06-23 18:00:00,
2013-06-23 20:05:00,71.6,66.5,29.97,WNW,290,3.5,3.5,84,0.00,OVC,FEW,0.01,0.0,WeatherDisplay:10.37,2013-06-23 18:05:00,
2013-06-23 20:10:00,71.4,66.3,29.97,WNW,290,3.5,3.5,84,0.00,OVC,FEW,0.01,0.0,WeatherDisplay:10.37,2013-06-23 18:10:00,
2013-06-23 20:15:00,71.2,66.1,29.97,WNW,290,2.3,2.3,84,0.00,OVC,FEW,0.01,0.0,WeatherDisplay:10.37,2013-06-23 18:15:00,
2013-06-23 20:20:00,71.1,66.0,29.97,WNW,290,1.2,0.0,84,0.00,OVC,FEW,0.01,0.0,WeatherDisplay:10.37,2013-06-23 18:20:00,
2013-06-23 20:25:00,71.0,66.3,29.97,WNW,290,3.5,3.5,85,0.00,OVC,FEW,0.01,0.0,WeatherDisplay:10.37,2013-06-23 18:25:00,
2013-06-23 20:30:00,70.7,66.0,29.97,WNW,290,1.2,0.0,85,0.00,OVC,FEW,0.01,0.0,WeatherDisplay:10.37,2013-06-23 18:30:00,
2013-06-23 20:35:00,70.4,65.7,29.97,WNW,290,1.2,1.2,85,0.00,OVC,FEW,0.01,0.0,WeatherDisplay:10.37,2013-06-23 18:35:00,
2013-06-23 20:40:00,70.3,65.9,29.97,WNW,290,1.2,0.0,86,0.00,OVC,FEW,0.01,0.0,WeatherDisplay:10.37,2013-06-23 18:40:00,
2013-06-23 20:45:00,70.2,65.8,29.97,WNW,290,3.5,3.5,86,0.00,OVC,FEW,0.01,0.0,WeatherDisplay:10.37,2013-06-23 18:45:00,
2013-06-23 20:50:00,70.1,65.7,29.97,WNW,290,1.2,1.2,86,0.00,OVC,FEW,0.01,0.0,WeatherDisplay:10.37,2013-06-23 18:50:00,
2013-06-23 20:55:00,70.1,65.7,29.97,WNW,290,1.2,1.2,86,0.00,OVC,FEW,0.01,0.0,WeatherDisplay:10.37,2013-06-23 18:55:00,
2013-06-23 21:00:00,70.2,65.5,29.97,NNW,342,4.6,4.6,85,0.00,OVC,FEW,0.01,0.0,WeatherDisplay:10.37,2013-06-23 19:00:00,
2013-06-23 21:05:00,70.0,65.3,29.97,NNW,334,3.5,3.5,85,0.00,CLR,FEW,0.01,0.0,WeatherDisplay:10.37,2013-06-23 19:05:00,
2013-06-23 21:10:00,69.9,65.2,29.97,NNW,334,1.2,1.2,85,0.00,CLR,FEW,0.01,0.0,WeatherDisplay:10.37,2013-06-23 19:10:00,
2013-06-23 21:15:00,69.9,65.2,29.97,North,360,4.6,4.6,85,0.00,CLR,FEW,0.01,0.0,WeatherDisplay:10.37,2013-06-23 19:15:00,
2013-06-23 21:20:00,69.8,65.1,29.97,North,360,3.5,3.5,85,0.00,CLR,FEW,0.01,0.0,WeatherDisplay:10.37,2013-06-23 19:20:00,
2013-06-23 21:25:00,69.6,65.2,29.98,North,360,2.3,2.3,86,0.00,CLR,FEW,0.01,0.0,WeatherDisplay:10.37,2013-06-23 19:25:00,
2013-06-23 21:30:00,69.6,65.2,29.98,North,360,2.3,2.3,86,0.00,CLR,FEW,0.01,0.0,WeatherDisplay:10.37,2013-06-23 19:30:00,
2013-06-23 21:35:00,69.5,65.1,29.98,North,360,0.0,0.0,86,0.00,CLR,FEW,0.01,0.0,WeatherDisplay:10.37,2013-06-23 19:35:00,
2013-06-23 21:40:00,69.6,65.6,29.98,North,360,0.0,0.0,87,0.00,CLR,FEW,0.01,0.0,WeatherDisplay:10.37,2013-06-23 19:40:00,
2013-06-23 21:45:00,69.5,65.5,29.98,North,360,0.0,0.0,87,0.00,CLR,FEW,0.01,0.0,WeatherDisplay:10.37,2013-06-23 19:45:00,
2013-06-23 21:50:00,69.4,65.4,29.98,North,360,1.2,0.0,87,0.00,CLR,FEW,0.01,0.0,WeatherDisplay:10.37,2013-06-23 19:50:00,
2013-06-23 21:55:00,69.3,65.3,29.99,North,360,0.0,0.0,87,0.00,CLR,FEW,0.01,0.0,WeatherDisplay:10.37,2013-06-23 19:55:00,
2013-06-23 22:00:00,69.2,65.2,29.99,North,360,1.2,0.0,87,0.00,CLR,FEW,0.01,0.0,WeatherDisplay:10.37,2013-06-23 20:00:00,
2013-06-23 22:05:00,69.0,65.0,29.99,North,360,3.5,0.0,87,0.00,CLR,FEW,0.01,0.0,WeatherDisplay:10.37,2013-06-23 20:05:00,
2013-06-23 22:10:00,68.9,65.2,29.99,North,360,0.0,0.0,88,0.00,CLR,FEW,0.01,0.0,WeatherDisplay:10.37,2013-06-23 20:10:00,
2013-06-23 22:15:00,68.7,65.0,29.99,North,360,0.0,0.0,88,0.00,CLR,FEW,0.01,0.0,WeatherDisplay:10.37,2013-06-23 20:15:00,
2013-06-23 22:20:00,68.7,65.0,29.99,North,360,0.0,0.0,88,0.00,CLR,FEW,0.01,0.0,WeatherDisplay:10.37,2013-06-23 20:20:00,
2013-06-23 22:25:00,68.8,65.1,29.99,North,360,1.2,1.2,88,0.00,CLR,FEW,0.01,0.0,WeatherDisplay:10.37,2013-06-23 20:25:00,
2013-06-23 22:30:00,68.7,65.0,29.99,North,360,2.3,2.3,88,0.00,CLR,FEW,0.01,0.0,WeatherDisplay:10.37,2013-06-23 20:30:00,
2013-06-23 22:35:00,68.7,65.0,29.99,North,360,0.0,0.1,88,0.00,CLR,FEW,0.01,0.0,WeatherDisplay:10.37,2013-06-23 20:35:00,
2013-06-23 22:40:00,68.4,64.7,29.98,North,360,0.0,0.0,88,0.00,CLR,FEW,0.01,0.0,WeatherDisplay:10.37,2013-06-23 20:40:00,
2013-06-23 22:45:00,68.1,64.4,29.98,North,360,1.2,0.0,88,0.00,CLR,FEW,0.01,0.0,WeatherDisplay:10.37,2013-06-23 20:45:00,
2013-06-23 22:50:00,68.0,64.3,29.98,North,360,0.0,0.0,88,0.00,CLR,FEW,0.01,0.0,WeatherDisplay:10.37,2013-06-23 20:50:00,
2013-06-23 22:56:00,68.0,64.3,29.98,North,360,1.2,1.2,88,0.00,CLR,FEW,0.01,0.0,WeatherDisplay:10.37,2013-06-23 20:56:00,
2013-06-23 23:01:00,67.9,64.2,29.98,North,360,1.2,1.2,88,0.00,CLR,FEW,0.01,0.0,WeatherDisplay:10.37,2013-06-23 21:01:00,
2013-06-23 23:06:00,67.8,64.1,29.98,North,360,0.0,0.0,88,0.00,CLR,FEW,0.01,0.0,WeatherDisplay:10.37,2013-06-23 21:06:00,
2013-06-23 23:11:00,67.7,64.0,29.99,North,360,1.2,1.2,88,0.00,CLR,FEW,0.01,0.0,WeatherDisplay:10.37,2013-06-23 21:11:00,
2013-06-23 23:16:00,67.7,64.3,29.98,North,360,0.0,0.0,89,0.00,CLR,FEW,0.01,0.0,WeatherDisplay:10.37,2013-06-23 21:16:00,
2013-06-23 23:21:00,67.5,64.1,29.98,North,360,0.0,0.0,89,0.00,CLR,FEW,0.01,0.0,WeatherDisplay:10.37,2013-06-23 21:21:00,
2013-06-23 23:26:00,67.3,63.9,29.98,North,360,0.0,0.0,89,0.00,CLR,FEW,0.01,0.0,WeatherDisplay:10.37,2013-06-23 21:26:00,
2013-06-23 23:31:00,67.3,63.9,29.98,North,360,0.0,0.0,89,0.00,CLR,FEW,0.01,0.0,WeatherDisplay:10.37,2013-06-23 21:31:00,
2013-06-23 23:36:00,67.2,63.8,29.98,North,360,0.0,0.0,89,0.00,CLR,FEW,0.01,0.0,WeatherDisplay:10.37,2013-06-23 21:36:00,
2013-06-23 23:41:00,67.2,63.8,29.99,North,360,0.0,0.0,89,0.00,CLR,FEW,0.01,0.0,WeatherDisplay:10.37,2013-06-23 21:41:00,
2013-06-23 23:46:00,67.2,63.8,29.99,North,360,0.0,0.0,89,0.00,CLR,FEW,0.01,0.0,WeatherDisplay:10.37,2013-06-23 21:46:00,
2013-06-23 23:52:00,67.2,63.8,29.98,North,360,0.0,0.0,89,0.00,CLR,FEW,0.01,0.0,WeatherDisplay:10.37,2013-06-23 21:52:00,
2013-06-23 23:57:00,67.2,63.8,29.99,North,360,0.0,0.0,89,0.00,CLR,FEW,0.01,0.0,WeatherDisplay:10.37,2013-06-23 21:57:00,